CDT,Max TemperatureF,Mean TemperatureF,Min TemperatureF,Max Dew PointF,MeanDew PointF,Min DewpointF,Max Humidity, Mean Humidity, Min Humidity, Max Sea Level PressureIn, Mean Sea Level PressureIn, Min Sea Level PressureIn, Max VisibilityMiles, Mean VisibilityMiles, Min VisibilityMiles, Max Wind SpeedMPH, Mean Wind SpeedMPH, Max Gust SpeedMPH,PrecipitationIn, CloudCover, Events, WindDirDegrees
2013-5-1,76,70,64,61,58,53,87,71,54,30.14,30.09,30.02,10,10,10,22,12,26,0.00,6,,120
2013-5-2,71,66,61,61,57,53,78,72,66,30.15,30.11,30.06,10,10,10,20,11,25,T,6,Rain,115
2013-5-3,75,60,45,58,53,45,93,72,50,30.07,29.96,29.86,10,8,2,30,15,37,0.85,7,Rain,146
2013-5-4,54,48,42,46,43,39,100,83,66,30.01,29.95,29.91,10,5,2,12,6,16,2.11,8,Rain,328
2013-5-5,60,51,41,50,47,39,100,81,62,29.92,29.86,29.83,10,6,0,17,6,71,0.74,6,Fog-Rain,305
2013-5-6,58,54,50,54,50,48,100,90,80,29.93,29.85,29.81,10,5,1,23,5,30,1.38,8,Fog-Rain,248
2013-5-7,71,57,43,56,49,42,100,75,49,30.01,29.97,29.91,10,4,0,10,3,16,0.00,3,Fog,267
2013-5-8,79,66,52,61,56,51,100,75,50,30.08,30.04,29.99,10,8,2,12,3,15,0.00,3,,271
2013-5-9,82,70,57,61,59,55,93,68,43,30.13,30.07,30.01,10,10,7,14,5,16,0.00,3,Fog,168
2013-5-10,74,68,61,63,61,59,97,83,68,30.06,30.00,29.92,10,8,2,21,7,30,0.43,7,Rain,195
2013-5-11,76,65,54,64,61,52,100,81,61,30.03,29.96,29.93,10,9,3,17,5,23,T,6,,272
2013-5-12,68,57,45,53,40,34,93,63,32,30.17,30.12,30.03,10,10,7,16,8,22,0.00,2,,344
2013-5-13,71,57,42,50,42,36,89,61,32,30.29,30.22,30.17,10,10,10,15,4,21,0.00,0,,284
2013-5-14,85,68,50,58,53,48,93,65,37,30.22,30.15,30.07,10,10,10,17,7,23,0.00,0,,189
2013-5-15,86,73,59,58,56,51,84,58,32,30.16,30.09,30.01,10,10,10,13,5,16,0.00,2,,221
2013-5-16,85,74,63,62,58,49,84,57,29,30.06,30.00,29.97,10,10,10,17,4,21,T,4,,177
2013-5-17,74,70,65,68,66,59,100,89,78,30.06,30.01,29.98,10,5,1,13,6,25,1.00,8,Rain-Thunderstorm,129
2013-5-18,82,74,66,71,69,65,100,85,69,30.05,30.01,29.97,10,7,3,14,5,17,T,7,,179
2013-5-19,84,75,65,73,69,62,100,83,65,30.07,30.01,29.98,10,6,2,26,7,31,T,5,Rain,178
2013-5-20,86,75,63,70,66,61,93,74,55,30.10,30.03,29.97,10,10,8,13,7,17,0.00,5,,148
2013-5-21,90,79,67,71,67,64,93,69,44,30.01,29.94,29.84,10,9,7,15,6,20,0.00,3,,166
2013-5-22,83,75,66,67,65,63,93,72,51,29.94,29.90,29.85,10,9,2,17,6,28,0.09,5,Rain,229
2013-5-23,83,73,62,66,61,56,100,72,43,30.07,29.99,29.92,10,9,1,17,6,23,0.00,1,Fog,301
2013-5-24,77,67,56,56,49,42,87,59,31,30.27,30.21,30.08,10,10,10,18,8,23,0.00,2,,14
2013-5-25,81,65,48,55,47,37,93,57,21,30.33,30.26,30.19,10,10,10,9,3,17,0.00,4,,66
2013-5-26,87,70,53,59,54,51,93,63,32,30.25,30.20,30.14,10,10,10,17,3,44,0.00,1,,154
2013-5-27,87,74,60,63,59,57,84,62,39,30.19,30.12,30.06,10,10,10,20,7,25,0.00,3,,166
2013-5-28,89,77,65,64,60,56,78,58,37,30.14,30.08,30.04,10,10,10,20,9,25,0.00,2,,167
2013-5-29,90,80,70,64,62,58,68,53,38,30.15,30.08,30.04,10,10,10,20,10,24,0.00,3,,142
2013-5-30,87,79,70,67,65,63,73,60,46,30.16,30.09,30.03,10,10,10,22,12,26,0.00,5,,140
2013-5-31,88,81,73,68,66,65,79,64,48,30.12,30.05,29.99,10,10,10,21,11,26,0.00,4,,158